Location: Pompeys Pillar
(45.9913°N, 107.9528°W)
Time: 05:01:22
(UTC+00:00)

Tiros 1 - Pass Details

Date: 01 June 2022
Orbit: 629 x 663 km, 48.4° (Epoch: 30 June)

Event Time Altitude Azimuth Distance (km) Brightness Sun altitude
Rises 04:46:38 0° 206° (SSW) 2,902 - -14.6°
Reaches altitude 10° 04:49:19 10° 191° (SSW) 1,997 - -14.9°
Maximum altitude 04:52:55 23° 140° (SE) 1,343 - -15.2°
Exits shadow 04:55:00 17° 104° (ESE) 1,598 8.8 -15.4°
Drops below altitude 10° 04:56:32 10° 88° (E) 2,008 9.4 -15.6°
Sets 04:59:14 0° 74° (ENE) 2,922 10.4 -15.8°
